GALAXY 32 (G-32)

Last updated on Sun Jun 21 2026 00:03:09 GMT+0000 (Coordinated Universal Time)

1 54244U 22153B 26171.23129725 -.00000179 00000+0 00000+0 0 9996 2 54244 0.0157 36.0739 0002075 1.5238 223.1141 1.00271613 13172
UTC large
Height (km)
Speed (km/s)
/
Latitude / Longitude
Inclination (degrees)
Orbital Period (minutes)
Azimuth
Elevation
Range (km)
Doppler Factor

Next 0 passes for location: London (51.5072 / 0.1276)

No passes found over London.
GALAXY 32 (G-32)